Location: Ferintosh
(52.7647°N, 112.9692°W)
Time: 14:59:54
(UTC+00:00)

Transit 2A Rocket - Pass Details

Date: 20 May 2024
Orbit: 583 x 910 km, 66.7° (Epoch: 22 June)

Event Time Altitude Azimuth Distance (km) Brightness Sun altitude
Rises 11:35:07 0° 192° (SSW) 2,972 7.6 0.3°
Reaches altitude 10° 11:37:26 10° 184° (S) 2,111 6.9 0.5°
Maximum altitude 11:41:52 38° 116° (ESE) 1,089 6.2 1.1°
Drops below altitude 10° 11:46:44 10° 50° (NE) 2,326 9.7 1.7°
Sets 11:49:24 0° 43° (NE) 3,315 10.2 2.1°
